Probability
1 1 1 2 3 4 3 2 1 0 0 0 0 0 0 1 0 0 0 0 0 0 0 0 0 0 0 0 0 0 0 0 0 0 0 0 0 0 0 0 1 0 0
2 2 2 2 3 3 2 1 0 0 0 0 0 0 1 1 1 0 0 0 0 0 0 0 0 0 0 0 0 0 0 0 0 0 0 0 0 0 0 0 1 0 0
3 3 3 3 1 1 1 1 0 0 0 0 0 0 1 2 1 1 1 1 0 0 0 0 0 0 0 0 0 0 0 0 0 0 0 0 0 0 0 0 0 0 0
3 3 3 2 1 0 1 1 0 0 0 0 0 0 1 2 1 1 1 1 0 0 0 0 0 0 0 0 0 0 0 0 0 0 0 0 0 0 0 0 0 0 0
1 2 3 2 1 0 0 0 0 0 0 0 0 0 1 2 2 1 1 0 0 0 0 0 0 0 0 0 0 0 0 0 0 0 0 0 0 0 0 0 0 0 0
1 1 1 1 1 0 0 0 0 0 0 0 0 0 0 1 2 2 1 0 0 0 0 0 0 0 0 0 0 0 0 0 0 0 0 0 0 0 0 0 0 0 0
2 1 0 0 0 0 0 0 0 0 0 0 0 0 0 0 1 2 2 1 0 0 0 0 0 0 0 0 0 0 0 0 0 0 0 0 0 0 0 0 0 0 0
3 2 1 0 0 0 0 0 0 0 0 0 0 0 0 0 0 1 1 1 0 0 0 0 0 0 0 0 0 0 0 0 0 0 0 0 0 0 0 0 0 0 0
3 2 1 0 0 0 0 0 0 0 0 0 0 0 0 0 0 0 0 0 0 0 0 0 0 0 0 0 0 0 0 0 0 0 0 0 0 0 0 0 0 0 0
3 3 1 0 0 0 0 0 0 0 0 0 0 0 0 0 0 0 0 0 0 0 0 0 0 0 0 0 0 0 0 0 0 0 0 0 0 0 0 0 0 0 0
3 3 2 1 1 0 0 0 0 0 0 0 0 0 0 0 0 0 0 0 0 0 0 0 0 0 0 0 0 0 0 0 0 0 0 0 0 0 0 0 0 0 0
3 3 3 3 2 1 1 0 0 0 0 0 0 0 0 0 0 0 0 0 0 0 0 0 0 0 0 0 0 0 0 0 0 0 0 0 0 0 0 0 0 0 0
3 3 3 3 3 3 2 1 0 0 0 0 0 0 0 0 0 0 0 0 0 0 0 0 0 0 0 0 0 0 0 0 0 0 0 0 0 0 0 0 0 0 0
2 2 3 3 3 3 3 2 1 0 0 0 0 0 0 0 0 0 0 0 0 0 0 0 0 0 0 0 0 0 0 0 0 0 0 0 0 0 0 0 0 0 0
1 1 1 2 3 3 3 3 2 1 0 0 0 0 0 0 0 0 0 0 0 0 0 0 0 0 0 0 0 0 0 0 0 0 0 0 0 0 0 0 0 0 0
0 0 0 1 3 3 3 3 2 1 0 0 0 0 0 0 0 0 0 0 0 0 0 0 0 0 0 0 0 0 0 0 0 0 0 0 0 0 0 0 0 0 0
0 0 0 1 2 2 2 2 1 1 0 0 0 0 0 0 0 0 0 0 0 0 0 0 0 0 0 0 0 0 0 0 0 0 0 0 0 0 0 0 0 0 0
0 0 0 0 1 1 1 1 0 0 0 0 0 0 0 0 0 0 0 0 0 0 0 0 0 0 0 0 0 0 0 0 0 0 0 0 0 0 0 0 0 0 0
0 0 0 0 0 0 0 0 0 0 0 0 0 0 0 0 0 0 0 0 0 0 0 0 0 0 0 0 0 0 0 0 0 0 0 0 0 0 0 0 0 0 0
0 0 0 0 0 0 0 0 0 0 0 0 0 0 0 0 0 0 0 0 0 0 0 0 0 0 0 0 0 0 0 0 0 0 0 0 0 0 0 0 0 0 0
0 0 0 0 0 0 0 0 0 0 0 0 0 0 0 0 0 0 0 0 0 0 0 0 0 0 0 0 0 0 0 0 0 0 0 0 0 0 0 0 0 0 0
0 0 0 0 0 0 0 0 0 0 0 0 0 0 0 0 0 0 0 0 0 0 0 0 0 0 0 0 0 0 0 0 0 0 0 0 0 0 0 0 0 0 0
0 0 0 0 0 0 0 0 0 0 0 0 0 0 0 0 0 0 0 0 0 0 0 0 0 0 0 0 0 0 0 0 0 0 0 0 0 0 0 0 0 0 0
0 0 0 0 0 0 0 0 0 0 0 0 0 0 0 0 0 0 0 0 0 0 0 0 0 0 0 0 0 0 0 0 0 0 0 0 0 0 0 0 0 0 0
0 0 0 0 0 0 0 0 0 0 0 0 0 0 0 0 0 0 0 0 0 0 0 0 0 0 0 0 0 0 0 0 0 0 0 0 0 0 0 0 0 0 0
0 0 0 0 0 0 0 0 0 0 0 0 0 0 0 0 0 0 0 0 0 0 0 0 0 0 0 0 0 0 0 0 0 0 0 0 0 0 0 0 0 0 0
Wind_Speed
1 1 1 1 1 1 2 2 2 2 2 1 1 2 2 2 1 1 0 1 3 3 3 2 2 2 2 2 2 2 3 3 3 3 3 3 4 4 4 4 4 3 4
2 1 1 1 2 2 1 2 2 2 2 1 2 2 2 2 2 2 1 1 1 2 3 3 2 3 3 3 3 3 4 3 3 3 4 4 5 5 5 5 5 5 5
3 2 2 2 1 2 2 2 2 2 2 2 2 2 2 2 2 2 2 1 1 0 2 3 3 3 3 4 4 4 4 4 5 5 5 5 5 6 6 6 6 6 6
3 3 2 2 2 2 2 2 2 2 2 1 1 2 2 2 2 2 2 1 1 1 1 3 4 4 4 4 4 5 5 5 5 6 6 6 6 6 6 7 7 7 7
4 3 3 2 3 3 2 2 2 2 2 2 2 2 2 2 2 3 3 2 2 2 2 2 3 4 4 5 5 6 6 6 6 6 6 6 7 6 7 7 8 8 8
3 3 3 3 3 3 3 3 3 2 2 2 2 2 3 3 3 3 3 3 2 2 2 2 2 2 4 5 6 6 7 6 6 6 7 7 7 7 8 8 8 9 9
4 3 3 3 4 4 4 4 3 3 2 1 2 2 3 4 4 3 3 3 3 3 3 3 3 3 3 5 6 7 7 7 6 6 7 7 8 8 8 9 9 10 10
5 4 4 3 4 4 5 5 4 3 2 2 2 2 2 3 3 3 3 3 4 3 3 3 3 3 4 3 4 7 7 7 7 7 7 8 8 9 10 10 10 11 11
5 5 5 4 4 4 5 5 5 5 4 3 3 3 3 3 2 2 4 4 4 4 4 4 4 4 4 4 4 5 7 8 8 8 9 9 10 10 11 11 11 12 12
5 5 5 5 4 4 4 5 5 5 5 4 3 3 3 2 2 2 2 3 4 5 5 4 4 5 5 4 4 6 7 8 8 8 9 10 11 11 12 12 12 12 12
4 4 5 5 5 5 5 5 5 5 5 5 4 3 3 3 4 4 4 4 4 4 4 5 4 4 5 5 4 5 7 8 8 8 9 10 11 12 13 13 13 13 13
3 4 4 4 5 4 5 5 5 6 6 6 5 4 3 3 4 4 5 5 5 4 4 4 5 4 4 5 5 6 7 8 8 8 9 9 10 11 12 12 13 13 12
3 4 4 4 4 4 5 5 5 6 6 6 6 5 5 5 3 4 4 5 5 4 4 5 4 4 4 4 5 6 7 8 9 9 9 10 10 10 10 11 11 11 11
4 4 4 4 5 4 4 5 4 5 5 6 7 6 5 5 5 4 4 4 5 5 5 6 4 5 4 4 5 7 6 8 9 10 10 10 10 10 11 11 11 12 11
3 4 4 4 5 5 5 5 4 5 5 6 6 7 6 5 5 5 5 5 5 6 7 5 4 4 4 4 5 6 7 7 9 10 10 10 10 10 11 12 12 12 12
4 4 5 5 5 4 5 5 5 5 5 5 5 6 7 5 5 5 5 5 5 6 7 5 5 4 4 5 6 7 7 8 9 10 10 11 11 11 11 12 12 12 12
4 5 5 5 5 5 5 5 5 5 6 6 6 6 8 7 6 6 5 6 6 6 8 7 5 4 5 6 5 6 6 6 6 9 10 11 11 11 12 12 12 12 12
5 5 5 5 5 5 5 6 6 6 7 7 7 7 8 6 9 7 6 7 6 7 7 9 6 5 6 6 7 7 6 5 6 8 10 11 12 11 11 11 11 11 11
5 5 5 5 6 6 6 6 6 7 7 7 8 8 8 8 9 7 7 7 6 6 6 7 7 5 5 4 6 6 6 6 6 7 9 11 11 12 11 12 11 11 11
5 5 5 6 6 6 6 6 6 7 7 7 7 8 8 9 9 8 7 8 6 6 6 6 7 5 5 4 5 5 5 5 6 5 7 8 9 11 12 12 12 11 11
5 4 5 5 5 5 5 6 6 6 7 7 7 7 7 8 9 8 6 7 7 6 6 6 6 6 5 4 5 5 6 6 6 4 5 5 6 6 7 10 11 11 12
4 4 4 5 5 5 6 7 6 6 6 7 7 7 7 7 7 9 9 9 9 8 8 7 7 7 8 7 5 5 5 5 6 3 5 6 5 6 6 6 9 11 12
3 4 4 4 5 6 7 8 8 6 6 6 7 6 6 5 7 7 8 9 10 11 11 8 8 8 7 7 6 7 7 7 7 4 5 7 5 7 6 7 11 12 12
3 3 4 4 5 6 7 7 7 6 6 7 7 7 7 7 6 6 6 6 7 8 9 8 7 8 7 7 7 7 7 7 7 4 4 7 5 6 5 6 10 11 11
3 3 4 4 5 6 6 7 6 5 5 6 6 6 7 7 8 8 6 6 6 6 6 7 8 8 8 8 7 5 5 5 6 5 3 5 5 5 5 6 6 9 10
3 3 3 4 4 5 6 7 7 4 5 5 5 5 6 7 7 8 6 6 7 6 5 5 6 7 7 7 7 6 5 5 5 5 2 3 4 3 5 4 4 4 5
Wind_Direction
189 183 180 221 204 188 186 188 189 189 194 197 220 226 232 234 240 253 251 12 332 317 294 277 257 263 268 267 286 294 287 299 302 285 281 280 282 286 289 291 295 294 286
198 202 205 228 212 196 199 200 200 199 207 213 227 232 239 241 235 239 251 239 325 320 318 308 299 290 285 278 281 290 290 283 293 292 289 283 275 275 279 286 287 283 286
201 201 211 221 223 196 194 199 196 198 207 217 230 242 244 249 241 233 240 255 244 14 331 315 310 309 302 296 284 283 287 286 285 288 284 286 283 277 277 278 278 279 280
207 203 208 217 222 202 193 196 199 207 212 227 251 257 252 248 243 240 236 246 266 265 277 306 303 299 298 298 297 292 288 284 283 285 287 279 281 278 276 276 273 274 271
214 209 213 216 210 198 194 196 206 219 227 239 254 260 255 245 240 239 243 248 258 271 270 284 295 296 295 290 293 294 294 286 284 284 284 280 272 273 276 274 270 269 268
214 212 216 215 207 198 195 199 206 214 229 240 249 257 256 250 242 240 245 248 250 256 263 275 271 275 283 288 286 289 291 281 282 284 281 278 272 267 268 269 271 269 266
213 212 220 212 207 204 202 198 200 203 217 224 236 253 254 244 245 243 250 250 248 249 259 271 272 273 266 271 277 283 285 281 282 285 283 281 275 269 268 269 267 268 270
213 215 216 214 209 206 202 197 194 203 208 202 224 246 258 237 228 240 247 247 252 249 254 263 267 268 270 263 279 283 285 279 281 286 286 285 282 276 270 268 267 267 269
213 214 219 216 210 208 206 203 202 202 208 207 219 229 236 243 266 233 238 246 252 252 256 262 263 269 269 269 274 279 288 285 283 284 286 285 284 280 275 272 270 270 270
217 218 221 218 214 212 211 210 210 214 211 209 212 240 262 278 252 259 239 245 256 254 255 258 262 264 265 266 275 292 298 296 289 285 285 285 284 284 281 277 274 271 270
216 223 221 215 214 215 214 212 213 216 217 216 209 215 231 245 246 251 260 256 256 249 252 255 259 261 260 263 269 286 293 291 291 287 286 285 286 285 283 280 275 271 268
215 218 221 221 219 217 215 215 217 220 224 224 221 217 217 221 225 233 253 267 268 260 255 250 251 257 259 261 265 281 286 282 282 285 286 287 286 285 283 283 279 273 269
223 224 219 222 224 223 220 219 219 222 225 227 226 227 233 239 240 241 247 266 272 273 259 245 244 252 256 258 263 270 272 274 276 279 279 281 284 285 285 283 284 283 280
228 227 225 223 223 221 220 221 223 226 227 229 231 233 240 241 238 240 242 251 269 268 258 257 243 241 251 259 268 266 266 267 272 273 275 276 278 281 281 281 280 281 281
230 227 227 227 227 222 220 220 227 228 230 232 235 235 240 244 240 243 244 241 249 265 264 255 250 243 253 260 266 263 266 269 269 270 272 273 273 275 276 277 277 277 277
229 227 228 232 235 234 230 224 229 230 231 236 240 237 239 242 241 239 238 241 243 253 264 264 258 270 265 263 263 263 266 272 266 266 268 268 268 269 272 274 273 273 274
227 228 230 233 235 235 234 233 235 234 235 238 240 242 243 241 240 238 237 238 239 243 257 268 268 267 264 266 269 267 271 272 271 265 268 269 268 268 270 272 273 272 273
230 232 232 233 236 237 237 236 238 240 240 239 240 241 246 244 242 240 237 239 240 241 250 263 268 267 264 268 272 271 273 272 274 273 268 269 269 269 269 271 273 272 274
231 232 233 236 238 239 240 240 242 245 246 246 244 243 246 244 245 242 240 241 242 243 247 256 265 269 272 275 276 275 275 273 274 276 270 266 265 266 268 270 271 271 273
233 234 237 242 244 243 241 242 244 247 249 250 249 249 248 244 246 246 243 242 242 244 246 252 259 263 266 275 273 273 277 272 273 276 269 269 268 266 264 265 267 268 268
238 240 242 247 249 247 243 243 247 250 252 254 255 255 255 254 253 251 249 245 242 243 245 249 254 257 257 260 262 270 271 278 273 267 274 268 267 264 263 262 261 264 267
247 246 246 250 254 256 256 253 254 252 252 254 259 261 260 254 252 252 252 251 247 244 244 246 251 253 256 258 264 265 270 274 275 264 272 272 263 264 264 263 266 266 266
259 258 260 259 263 268 266 261 259 258 256 256 257 259 259 259 254 254 256 254 251 250 249 250 252 255 261 258 261 261 261 264 270 287 278 270 263 263 266 267 269 267 267
276 272 273 273 276 280 277 274 272 264 262 260 257 257 260 261 257 255 257 258 258 255 251 249 254 262 266 269 260 261 264 268 276 271 262 269 272 271 276 270 268 266 267
294 291 288 284 284 289 289 286 282 272 267 266 263 260 256 259 261 256 255 256 262 263 259 254 260 267 275 278 271 264 264 262 270 267 252 264 276 285 278 268 269 270 269
295 301 300 297 295 296 297 294 290 275 271 272 271 264 255 256 261 255 254 254 259 265 267 270 265 268 269 266 260 255 255 256 268 273 252 265 277 291 287 274 276 278 273